Location: Casteau
(50.5142°N, 4.0161°E)
Time: 17:19:03
(UTC+00:00)

S-56A Canister/Altair - Pass Details

Date: 04 August 2021
Orbit: 632 x 2500 km, 38.9° (Epoch: 20 September)

Event Time Altitude Azimuth Distance (km) Brightness Sun altitude
Rises 15:29:29 0° 251° (WSW) 5,523 12.9 35.2°
Reaches altitude 10° 15:32:56 10° 246° (WSW) 4,712 12.9 34.7°
Maximum altitude 15:46:07 52° 176° (S) 2,910 11.0 32.6°
Drops below altitude 10° 16:00:14 10° 107° (ESE) 5,018 11.3 30.4°
Sets 16:04:02 0° 103° (ESE) 5,894 11.5 29.8°
